Retour au catalogue

FENGYUN 1C DEB

ActifSSO
NORAD 37420·DEBRIS·🇨🇳 China

Lancé May 10, 1999 depuis Taiyuan Satellite Launch Center

Loading…

Prochains Passages (prochaines 24 heures)

TLE

PériméSource: Space-Track

Époque: Sep 1, 2026, 05:20 UTC

1 37420U 99025EGN 26244.22247706  .00000084  00000-0  85058-4 0  9991
2 37420  98.8792 231.2662 0071971 264.0665  95.2293 13.99980753634374

Suivez FENGYUN 1C DEB en temps réel avec AllMySat

Download on the App Store